This demonstration page uses our WeatherBlox Daily Observations layout. Learn more.

39.01783, -85.05884

Hourly Observations for February 14, 2020

Temp ( °F °C ) Dew Point ( °F °C ) Humidity (%) Winds ( mph kmh ) Pressure ( in mb ) Visibility ( mi km ) Precip ( " mm )
12:52 am 00:52 Cloudy 19 -7.2 10 -12.2 68 68 WNW 13 20 30.37 1029 9 14.48406 0.001 0.001
1:52 am 01:52 Cloudy 17 -8.3 8 -13.3 68 68 WNW 15 24 30.39 1029 10 16.0934 0 0
2:23 am 02:23 Cloudy with Light Snow 17 -8.3 8 -13.3 68 68 NNW 15 24 30.46 1031 10 16.0934 0.001 0.001
2:52 am 02:52 Cloudy with Light Snow 17 -8.3 8 -13.3 68 68 NW 14 22 30.4 1030 9 14.48406 0.001 0.001
3:52 am 03:52 Cloudy with Light Snow 17 -8.3 8 -13.3 68 68 NW 14 22 30.42 1030 9 14.48406 0.001 0.001
4:52 am 04:52 Cloudy with Light Snow 15 -9.4 7 -13.9 70 70 NW 16 26 30.44 1031 8 12.87472 0.001 0.001
5:23 am 05:23 Mostly Cloudy 12 -11.1 4 -15.6 70 70 NW 13 20 30.52 1034 9 14.48406 0.001 0.001
5:32 am 05:32 Mostly Cloudy 12 -11.1 4 -15.6 70 70 NW 13 20 30.52 1034 9 14.48406 0.001 0.001
5:52 am 05:52 Cloudy with Light Snow 12 -11.1 4 -15.6 70 70 NW 12 19 30.48 1032 6 9.65604 0.001 0.001
6:28 am 06:28 Cloudy with Light Snow 12 -11.1 4 -15.6 70 70 NW 12 19 30.55 1035 9 14.48406 0.001 0.001
6:52 am 06:52 Cloudy with Light Snow 12 -11.1 4 -15.6 70 70 NW 10 17 30.5 1033 7 11.26538 0.001 0.001
7:45 am 07:45 Cloudy with Light Snow 12 -11.1 5 -15 73 73 WNW 10 17 30.57 1035 4 6.43736 0.001 0.001
7:52 am 07:52 Cloudy with Light Snow 12 -11.1 5 -15 73 73 WNW 9 15 30.53 1034 3 4.82802 0.001 0.001
8:39 am 08:39 Cloudy with Light Snow 12 -11.1 5 -15 73 73 NW 10 17 30.6 1036 4 6.43736 0.001 0.001
8:52 am 08:52 Cloudy with Light Snow 12 -11.1 5 -15 73 73 NW 12 19 30.56 1035 5 8.0467 0.001 0.001
9:52 am 09:52 Cloudy with Light Snow 13 -10.6 5 -15 70 70 WNW 10 17 30.57 1035 8 12.87472 0.001 0.001
10:25 am 10:25 Mostly Cloudy 15 -9.4 5 -15 64 64 NW 9 15 30.62 1037 10 16.0934 0.001 0.001
10:52 am 10:52 Mostly Sunny 16 -8.9 5 -15 62 62 NW 7 11 30.58 1036 10 16.0934 0.001 0.001
11:52 am 11:52 Mostly Sunny 19 -7.2 7 -13.9 59 59 WNW 7 11 30.58 1036 10 16.0934 0 0
12:52 pm 12:52 Partly Cloudy 21 -6.1 9 -12.8 59 59 WNW 7 11 30.58 1036 10 16.0934 0 0
1:52 pm 13:52 Mostly Cloudy 20 -6.7 7 -13.9 57 57 VRB 3 6 30.57 1035 10 16.0934 0 0
2:12 pm 14:12 Mostly Cloudy 23 -5 8 -13.3 53 53 VRB 6 9 30.6 1036 10 16.0934 0 0
2:52 pm 14:52 Mostly Cloudy 23 -5 8 -13.3 53 53 VRB 3 6 30.55 1034 10 16.0934 0 0
3:52 pm 15:52 Mostly Cloudy 22 -5.6 6 -14.4 50 50 Calm 30.55 1035 10 16.0934 0 0
4:52 pm 16:52 Mostly Sunny 24 -4.4 7 -13.9 48 48 NNE 5 7 30.55 1035 10 16.0934 0 0
5:52 pm 17:52 Mostly Sunny 23 -5 6 -14.4 48 48 Calm 30.56 1035 10 16.0934 0 0
6:52 pm 18:52 Mostly Clear 21 -6.1 7 -13.9 54 54 N 3 6 30.57 1035 10 16.0934 0 0
7:52 pm 19:52 Mostly Clear 21 -6.1 7 -13.9 54 54 Calm 30.57 1035 10 16.0934 0 0
8:52 pm 20:52 Clear 19 -7.2 9 -12.8 65 65 E 6 9 30.56 1035 10 16.0934 0 0
9:52 pm 21:52 Clear 19 -7.2 10 -12.2 68 68 SE 9 15 30.55 1035 10 16.0934 0 0
10:52 pm 22:52 Clear 18 -7.8 10 -12.2 71 71 SE 9 15 30.55 1035 10 16.0934 0 0
11:52 pm 23:52 Clear 17 -8.3 9 -12.8 70 70 SE 9 15 30.53 1034 10 16.0934 0 0

Powered by AerisWeather